GPS BIIR-6 (PRN 14)

Last updated on Jan. 19, 2020, 4:38 a.m. UTC

1 26605U 00071A   20018.56714712  .00000092  00000-0  00000+0 0  9991
2 26605  55.0324 187.4079 0110379 249.7440 107.4990  2.00571053140577
UTC
Height (km)
Latitude
Longitude
Inclination
Orbital Period
UTC large
Height (km)
Speed (km/s)
/
Latitude / Longitude
Inclination (degrees)
Orbital Period (minutes)
Azimuth
Elevation
Range (km)
Doppler Factor
iOS Compass Heading
iOS Angle

Next 30 passes for location: Hong Kong

Rise time Rise Azimuth (degrees) Set time Set Azimuth (degrees) Duration Max altitude (degrees)

No matching passes for this satellites